Location: ??????
(42.0089°N, 44.3281°E)
Time: 04:14:11
(UTC+00:00)

Okean 1-7 Rocket - Visible Passes

Search period start: 03 December 2023 00:00
Search period end: 13 December 2023 00:00
Orbit: 613 x 648 km, 82.5° (Epoch: 02 December)

Date Brightness Start Highest point End Pass type
(mag) Time Alt. Az. Time Alt. Az. Time Alt. Az.
03 Dec 3.4 01:57:09 10° S 02:01:31 90° SW 02:05:56 10° N visible
04 Dec6.800:48:21NE00:48:21NE00:39:29SEvisible
04 Dec 5.5 02:25:54 15° N 02:25:54 15° N 02:26:44 10° N visible
04 Dec 6.6 14:07:18 10° NW 14:09:45 15° W 14:12:10 10° WSW visible
